Regional Weather Roundup
Issued by NWS

Home | Current Version | Previous Version | Graphics & Text | Print | Product List | Glossary Off
Versions: 1 2 3 4 5 6 7 8 9 10 11 12 13 14 15 16 17 18 19 20 21 22 23 24 25 26 27 28 29 30 31 32 33 34 35 36 37 38 39 40 41 42 43 44 45 46 47 48 49 50

000
ASUS43 KDMX 230606
RWRIA

WEATHER ROUNDUP FOR IOWA
NATIONAL WEATHER SERVICE DES MOINES IA
1200 AM CST THU FEB 23 2017

NOTE: "FAIR" INDICATES FEW OR NO CLOUDS BELOW 12,000 FEET WITH NO
SIGNIFICANT WEATHER AND/OR OBSTRUCTIONS TO VISIBILITY.

* - THESE STATIONS ARE NOT NWS STATIONS...THUS NOT UNDER NWS
QUALITY CONTROL.  THEY ALSO DO NOT REPORT WEATHER SUCH
AS PRECIPITATION OR FOG.

IAZ001>003-012>014-020>022-031>034-043>046-230700-
   NORTHWEST IOWA

CITY           SKY/WX    TMP DP  RH WIND       PRES   REMARKS
CARROLL *      CLEAR     41  41 100 N15       29.79F
CHEROKEE *     PTCLDY    37  36  95 N6        29.84R WCI  33
DENISON *      CLEAR     41  39  93 NE8G15    29.77F
LE MARS *      CLOUDY    37  36  93 N8        29.86R WCI  31
ORANGE CITY *  CLOUDY    36  36 100 N13G20    29.83S WCI  27
SHELDON *      CLOUDY    34  34 100 N21       29.82F WCI  22
SIOUX CITY     CLOUDY    44  37  76 N17       29.82S
6HR MIN TEMP:  44; 6HR MAX TEMP:  59;

SPENCER        CLOUDY    36  33  89 N20       29.83S WCI  25
6HR MIN TEMP:  36; 6HR MAX TEMP:  52;

STORM LAKE *   CLOUDY    37  36  93 N17       29.82R WCI  28
$$

IAZ055>058-069>071-079>083-090>094-230700-
   SOUTHWEST IOWA

CITY           SKY/WX    TMP DP  RH WIND       PRES   REMARKS
ATLANTIC *     CLEAR     41  39  93 N10       29.79F
CLARINDA *     CLEAR     46  41  81 N10       29.80S
COUNCIL BLFS * CLEAR     45  41  87 N14       29.78F
CRESTON *      CLEAR     46  41  81 N14       29.78S
HARLAN  *      PTCLDY    41  41 100 N6        29.83F
LAMONI         CLEAR     50  41  71 N12       29.76R
6HR MIN TEMP:  50; 6HR MAX TEMP:  63;

RED OAK *      CLEAR     43  39  87 NE8       29.78F
SHENANDOAH *   PTCLDY    46  41  81 N13       29.78F
$$

IAZ047>049-059>061-072>074-084-230700-
   CENTRAL IOWA

CITY           SKY/WX    TMP DP  RH WIND       PRES   REMARKS
AMES           CLEAR     44  40  85 N14       29.80R
6HR MIN TEMP:  44; 6HR MAX TEMP:  62;

ANKENY *       CLEAR     46  43  87 N12       29.79S
BOONE *        CLEAR     41  41 100 N9        29.79R
CHARITON *     CLEAR     48  43  81 N13       29.76R
DES MOINES     CLEAR     49  43  80 N9        29.78R
6HR MIN TEMP:  49; 6HR MAX TEMP:  67;

GRINNELL*      CLEAR     44  38  79 NW13      29.77R
KNOXVILLE *    CLEAR     48  43  81 N15G22    29.75R
MARSHALLTOWN   CLEAR     41  38  89 NW13      29.76R
6HR MIN TEMP:  41; 6HR MAX TEMP:  58;

NEWTON *       CLEAR     46  39  76 N20       29.75S
PELLA *        CLEAR     48  38  70 N15G23    29.77R
PERRY *          N/A     43  40  89 NW9       29.80S
$$

IAZ004>006-015-016-023>025-035-036-230700-
   NORTH CENTRAL IOWA

CITY           SKY/WX    TMP DP  RH WIND       PRES   REMARKS
ALGONA *       CLOUDY    39  37  93 N13G22    29.81R WCI  32
CLARION *      CLOUDY    39  39 100 N20G25    29.80S WCI  30
ESTHERVILLE    CLOUDY    35  34  96 N22       29.82R WCI  23
6HR MIN TEMP:  35; 6HR MAX TEMP:  52;

FORT DODGE *   CLOUDY    39  32  75 NW9G20    29.82R WCI  33
MASON CITY     CLOUDY    40  37  89 NW23      29.79R WCI  30
6HR MIN TEMP:  40; 6HR MAX TEMP:  52;

FOREST CITY *  CLOUDY    37  36  93 NW17G23   29.79R WCI  28
WEBSTER CITY * CLOUDY    39  37  93 NW20      29.79R WCI  30
IOWA FALLS *   CLOUDY    41  38  91 NW20G26   29.79R
$$

IAZ007>011-017>019-026>030-037>042-050>054-066-230700-
   NORTHEAST IOWA

CITY           SKY/WX    TMP DP  RH WIND       PRES   REMARKS
CEDAR RAPIDS   CLEAR     46  43  89 NW15      29.71R
6HR MIN TEMP:  45; 6HR MAX TEMP:  59;

CHARLES CITY * CLOUDY    43  43 100 NW13G21   29.76R
CLINTON *      CLEAR     47  42  83 W12       29.68R
DECORAH *      CLOUDY    45  41  87 NW10G20   29.70R
DUBUQUE        CLEAR     47  43  86 NW14      29.68R
6HR MIN TEMP:  47; 6HR MAX TEMP:  62;

MONTICELLO *   CLEAR     48  45  87 NW17      29.69R
OELWEIN *      CLOUDY    45  45 100 NW16      29.73R
WATERLOO       CLOUDY    43  39  86 NW18      29.74R
6HR MIN TEMP:  43; 6HR MAX TEMP:  58;

$$

IAZ064-065-067-068-078-230700-
   EAST CENTRAL IOWA

CITY           SKY/WX    TMP DP  RH WIND       PRES   REMARKS
DAVENPORT      CLEAR     48  41  76 W6        29.69R
6HR MIN TEMP:  48; 6HR MAX TEMP:  65;

IOWA CITY      CLEAR     52  44  74 NW13      29.73R
6HR MIN TEMP:  44; 6HR MAX TEMP:  68;

MUSCATINE *    PTCLDY    52  43  71 NW10      29.71R
QUAD CITIES    PTCLDY   N/A N/A N/A CALM      29.68R
$$

IAZ062-063-075>077-085>089-095>099-230700-
   SOUTHEAST IOWA

CITY           SKY/WX    TMP DP  RH WIND       PRES   REMARKS
BURLINGTON     CLEAR     54  49  83 NW6       29.70R
6HR MIN TEMP:  51; 6HR MAX TEMP:  63;

FAIRFIELD *    PTCLDY    50  43  76 NW14      29.72S
KEOKUK *       CLEAR     54  50  87 NW5       29.71R
OTTUMWA        CLEAR     50  43  77 NW14      29.74R
6HR MIN TEMP:  50; 6HR MAX TEMP:  67;

WASHINGTON *   PTCLDY    52  45  76 NW12G20   29.73R
$$

ABBREVIATIONS USED IN REMARKS
   TC - TEMPERATURES IN CELSIUS
  WCI - WIND CHILL INDEX
   HX - HEAT INDEX
  VSB - VISIBILITY
$$





USA.gov is the U.S. government's official web portal to all federal, state and local government web resources and services.